Weather Roundup
Issued by NWS Chicago, IL

Home | Current Version | Previous Version | Text Only | Print | Product List | Glossary On
Versions: 1 2 3 4 5 6 7 8 9 10 11 12 13 14 15 16 17 18 19 20 21 22 23 24 25 26 27 28 29 30 31 32 33 34 35 36 37 38 39 40 41 42 43 44 45 46 47 48 49 50
000
NZUS59 KLOT 011821
HRRLOT

CHICAGO AREA WEATHER ROUNDUP
NATIONAL WEATHER SERVICE CHICAGO/ROMEOVILLE IL
100 PM CDT TUE SEP 01 2015

NOTE: "FAIR" INDICATES FEW OR NO CLOUDS BELOW 12,000 FEET WITH NO
SIGNIFICANT WEATHER AND/OR OBSTRUCTIONS TO VISIBILITY.

* THESE STATIONS ARE NOT UNDER NWS QUALITY CONTROL. THEY ALSO MAY NOT
  REPORT WEATHER SUCH AS PRECIPITATION OR FOG.

ILZ005-006-012>014-019>023-011900-
NORTHEAST ILLINOIS

CITY           SKY/WX    TMP DP  RH WIND       PRES   REMARKS
OHARE          MOSUNNY   87  72  60 S12G17    30.03F HX  93
6HR MIN TEMP:  71; 6HR MAX TEMP:  87;

MIDWAY         PTSUNNY   87  73  62 S14G23    30.04F HX  94
6HR MIN TEMP:  74; 6HR MAX TEMP:  88;

AURORA         SUNNY     87  73  62 S10       30.04F HX  94
6HR MIN TEMP:  69; 6HR MAX TEMP:  87;

LANSING*       MOSUNNY   81  70  69 SW13G18   30.07F HX  84
JOLIET*        MOSUNNY   85  75  71 S7        30.05F HX  93
WAUKEGAN       PTSUNNY   83  73  72 SE9       30.02S HX  89
6HR MIN TEMP:  69; 6HR MAX TEMP:  86;

DUPAGE AIRPORT MOSUNNY   86  73  65 SW10      30.03F HX  93
6HR MIN TEMP:  70; 6HR MAX TEMP:  87; 6HR PCP: TRACE;

WHEELING       MOSUNNY   88  71  57 SW12      30.03F HX  94
6HR MIN TEMP:  70; 6HR MAX TEMP:  88; 6HR PCP: TRACE;

KANKAKEE*      MOSUNNY   83  71  67 S10G17    30.07F HX  88
MORRIS*        CLOUDY    83  75  77 S12       30.04F HX  89
LEWIS AIRPORT* PTSUNNY   83  72  69 S16       30.05F HX  89
NORTHERLY IS     N/A     84  70  62 S12         N/A  HX  88
$$

WIZ051-052-058>065-066-070>072-011900-
SOUTHEAST WISCONSIN

CITY           SKY/WX    TMP DP  RH WIND       PRES   REMARKS
MILWAUKEE      MOSUNNY   89  68  49 S12G21    30.00F HX  93
6HR MIN TEMP:  70; 6HR MAX TEMP:  89;

KENOSHA*       MOSUNNY   88  73  61 SW10G17   30.02F HX  95
RACINE*        SUNNY     85  72  65 S10       30.03S HX  91
BURLINGTON     SUNNY     85  71  61 S8        30.02S HX  90
WAUKESHA       SUNNY     84  66  54 SW5       30.03S HX  86
WEST BEND      SUNNY     86  66  51 SW10      30.00S HX  88
$$

INZ001>003-010>013-019-020-011900-
NORTHWEST INDIANA

CITY           SKY/WX    TMP DP  RH WIND       PRES   REMARKS
GARY*          MOSUNNY  N/A N/A N/A S20       30.06F
MICHIGAN CITY* NOT AVBL
RENSSELAER*    NOT AVBL
VALPARAISO     MOSUNNY   81  71  71 W13       30.09F HX  85
$$

LMZ740>746-011900-
SOUTHERN LAKE MICHIGAN

STATION/POSITION TIME  SKY/WX   TEMP WIND        PRES    VSBY
                                AIR  DIR/SP/G
                 (UTC)          (F)  (DEG/KT/KT) (MB)    (MI)
HARRISON CRIB    1800            79  170/ 17/ 20   N/A
BURNHAM HARBOR   1800            84  190/ 11/ 15   N/A
CALUMET HARBOR   1800            81  180/ 11/ 19   N/A
BURNS HARBOR     1700            80  200/ 14/ 19 1018.6S
MICHIGAN CITY    1800            79  190/ 14/ 17   N/A
$$

ABBREVIATIONS USED IN REMARKS
   TC - TEMPERATURE IN CELSIUS
  WCI - WIND CHILL INDEX
   HX - HEAT INDEX
  VSB - VISIBILITY
$$



USA.gov is the U.S. government's official web portal to all federal, state and local government web resources and services.